Weather History for KSYF - May, 2012

Change the Weather History Date:

Monday, May 28, 2012

  Actual Average Record
Temperature  
Mean Temperature 62 °F -  
Max Temperature 84 °F 77 °F 92 °F (2014)
Min Temperature 41 °F 51 °F 51 °F (2013)
Degree Days  
Heating Degree Days 3    
Growing Degree Days 12 (Base 50)    
Moisture  
Dew Point 22 °F    
Average Humidity 27    
Maximum Humidity 67    
Minimum Humidity 5    
Precipitation  
Precipitation 0.00 in - - ()
Sea Level Pressure  
Sea Level Pressure 29.93 in    
Wind  
Wind Speed 7 mph ()    
Max Wind Speed 18 mph    
Max Gust Speed 28 mph    
Visibility 10.0 miles    
Events      
Averages and records for this station are not official NWS values.
T = Trace of Precipitation, MM = Missing Value Source: Averaged Metar Reports

Daily Weather History Graph

Daily Weather History Graph

Search for Another Location

Airport or City:

Trip Planner

Search our weather history database for the weather conditions in past years. The results will help you decide how hot, cold, wet, or windy it might be!

Date:

Astronomy

May. 28, 2012 Rise Set
Actual Time 6:22 AM CDT 9:06 PM CDT
Civil Twilight 5:51 AM CDT 9:38 PM CDT
Nautical Twilight 5:11 AM CDT 10:18 PM CDT
Astronomical Twilight 4:26 AM CDT 11:03 PM CDT
Moon 1:34 PM CDT (5/28) 1:45 AM CDT (5/28)
Length of Visible Light 15h 47m
Length of Day
14h 43m
Waxing Crescent, 49% of the Moon is Illuminated
May 28
Waxing Crescent
May 28
First Quarter
Jun 4
Full
Jun 11
Last Quarter
Jun 19
New

Hourly Weather History & Observations

Time (CDT) Temp. Windchill Dew Point Humidity Pressure Visibility Wind Dir Wind Speed Gust Speed Precip Events Conditions
12:15 AM 59.9 °F - 22.5 °F 24% 29.84 in 10.0 mi NW 8.1 mph - N/A   Clear
12:35 AM 59.5 °F - 22.1 °F 24% 29.86 in 10.0 mi NNW 4.6 mph - N/A   Clear
12:55 AM 57.4 °F - 23.7 °F 27% 29.87 in 10.0 mi NNW 8.1 mph - N/A   Clear
1:15 AM 57.0 °F - 23.9 °F 28% 29.87 in 10.0 mi NNW 4.6 mph - N/A   Clear
1:35 AM 55.0 °F - 25.3 °F 32% 29.88 in 10.0 mi WNW 6.9 mph - N/A   Clear
1:55 AM 54.9 °F - 25.5 °F 32% 29.88 in 10.0 mi WNW 4.6 mph - N/A   Clear
2:15 AM 54.5 °F - 25.9 °F 33% 29.89 in 10.0 mi North 4.6 mph - N/A   Clear
2:35 AM 54.7 °F - 25.9 °F 33% 29.89 in 10.0 mi NW 3.5 mph - N/A   Clear
2:55 AM 53.6 °F - 26.8 °F 36% 29.90 in 10.0 mi NW 3.5 mph - N/A   Clear
3:15 AM 52.7 °F - 27.5 °F 38% 29.91 in 10.0 mi West 4.6 mph - N/A   Clear
3:35 AM 49.1 °F - 29.5 °F 47% 29.91 in 10.0 mi West 5.8 mph - N/A   Clear
3:55 AM 47.1 °F - 30.4 °F 52% 29.91 in 10.0 mi WSW 4.6 mph - N/A   Clear
4:15 AM 46.4 °F 42.9 °F 30.7 °F 54% 29.92 in 10.0 mi WSW 6.9 mph - N/A   Clear
4:35 AM 43.7 °F 39.1 °F 31.1 °F 61% 29.92 in 10.0 mi WSW 8.1 mph - N/A   Clear
4:55 AM 42.8 °F 38.6 °F 31.6 °F 65% 29.92 in 10.0 mi WSW 6.9 mph - N/A   Clear
5:15 AM 43.0 °F 38.2 °F 31.8 °F 65% 29.93 in 10.0 mi SW 8.1 mph - N/A   Clear
5:35 AM 43.5 °F 39.4 °F 31.5 °F 63% 29.93 in 10.0 mi WSW 6.9 mph - N/A   Clear
5:55 AM 42.8 °F 38.0 °F 31.1 °F 63% 29.94 in 10.0 mi WSW 8.1 mph - N/A   Clear
6:15 AM 41.9 °F 37.5 °F 31.1 °F 66% 29.94 in 10.0 mi WSW 6.9 mph - N/A   Clear
6:35 AM 42.1 °F 36.6 °F 31.6 °F 67% 29.95 in 10.0 mi SW 9.2 mph - N/A   Clear
6:55 AM 42.3 °F 36.8 °F 32.0 °F 67% 29.96 in 10.0 mi SW 9.2 mph - N/A   Clear
7:15 AM 42.8 °F 37.5 °F 32.0 °F 66% 29.96 in 10.0 mi WSW 9.2 mph - N/A   Clear
7:35 AM 45.9 °F 41.2 °F 32.2 °F 59% 29.97 in 10.0 mi SW 9.2 mph - N/A   Clear
7:55 AM 48.6 °F - 32.0 °F 53% 29.97 in 10.0 mi WSW 10.4 mph - N/A   Clear
8:15 AM 50.2 °F - 31.8 °F 49% 29.97 in 10.0 mi WSW 9.2 mph - N/A   Clear
8:35 AM 53.1 °F - 32.0 °F 45% 29.97 in 10.0 mi WSW 8.1 mph - N/A   Clear
8:55 AM 56.7 °F - 32.2 °F 40% 29.98 in 10.0 mi SW 5.8 mph - N/A   Clear
9:15 AM 61.0 °F - 30.9 °F 32% 29.98 in 10.0 mi SW 3.5 mph - N/A   Clear
9:35 AM 64.0 °F - 30.7 °F 29% 29.98 in 10.0 mi WNW 4.6 mph - N/A   Clear
9:55 AM 66.9 °F - 24.6 °F 20% 29.98 in 10.0 mi NW 5.8 mph - N/A   Clear
10:15 AM 67.5 °F - 24.1 °F 19% 29.98 in 10.0 mi NNW 4.6 mph - N/A   Clear
10:35 AM 68.7 °F - 25.7 °F 20% 29.98 in 10.0 mi NNW 4.6 mph - N/A   Clear
10:55 AM 70.2 °F - 24.3 °F 18% 29.98 in 10.0 mi NNW 5.8 mph - N/A   Clear
11:15 AM 71.8 °F - 23.7 °F 17% 29.98 in 10.0 mi WSW 8.1 mph - N/A   Clear
11:35 AM 71.6 °F - 23.7 °F 17% 29.98 in 10.0 mi NW 4.6 mph - N/A   Clear
11:55 AM 72.5 °F - 23.5 °F 16% 29.97 in 10.0 mi SW 8.1 mph - N/A   Clear
12:15 PM 74.3 °F - 21.2 °F 14% 29.98 in 10.0 mi WSW 9.2 mph - N/A   Clear
12:35 PM 75.2 °F - 19.2 °F 12% 29.97 in 10.0 mi WSW 12.7 mph 18.4 mph N/A   Clear
12:55 PM 75.7 °F - 19.2 °F 12% 29.97 in 10.0 mi West 9.2 mph 19.6 mph N/A   Clear
1:15 PM 75.9 °F - 18.7 °F 12% 29.96 in 10.0 mi SW 8.1 mph 16.1 mph N/A   Clear
1:35 PM 77.2 °F - 16.5 °F 10% 29.96 in 10.0 mi SW 8.1 mph 17.3 mph N/A   Clear
1:55 PM 77.9 °F - 16.2 °F 10% 29.94 in 10.0 mi SW 10.4 mph 19.6 mph N/A   Clear
2:15 PM 77.7 °F - 14.5 °F 9% 29.93 in 10.0 mi SW 8.1 mph - N/A   Clear
2:35 PM 79.3 °F - 13.6 °F 8% 29.92 in 10.0 mi WSW 11.5 mph 21.9 mph N/A   Clear
2:55 PM 82.0 °F - 8.4 °F 6% 29.92 in 10.0 mi WSW 15.0 mph 27.6 mph N/A   Clear
3:15 PM 81.9 °F - 8.6 °F 6% 29.91 in 10.0 mi SW 10.4 mph 24.2 mph N/A   Clear
3:35 PM 81.7 °F - 7.3 °F 6% 29.91 in 10.0 mi SW 15.0 mph 18.4 mph N/A   Clear
3:55 PM 82.2 °F - 8.6 °F 6% 29.90 in 10.0 mi SW 12.7 mph 25.3 mph N/A   Clear
4:15 PM 83.7 °F - 5.2 °F 5% 29.89 in 10.0 mi WSW 18.4 mph 27.6 mph N/A   Clear
4:35 PM 83.1 °F - 6.8 °F 5% 29.89 in 10.0 mi West 15.0 mph 21.9 mph N/A   Clear
4:55 PM 83.8 °F - 7.2 °F 5% 29.88 in 10.0 mi SW 16.1 mph 21.9 mph N/A   Clear
5:15 PM 83.3 °F - 8.2 °F 6% 29.88 in 10.0 mi SW 10.4 mph 24.2 mph N/A   Clear
5:35 PM 83.5 °F - 5.0 °F 5% 29.88 in 10.0 mi WSW 12.7 mph 17.3 mph N/A   Clear
6:15 PM 83.3 °F - 3.7 °F 5% 29.87 in 10.0 mi South 8.1 mph 16.1 mph N/A   Clear
6:35 PM 83.3 °F - 5.5 °F 5% 29.87 in 10.0 mi SW 15.0 mph 19.6 mph N/A   Clear
6:55 PM 82.4 °F - 7.9 °F 6% 29.87 in 10.0 mi SSW 15.0 mph 21.9 mph N/A   Clear
7:15 PM 81.5 °F - 8.8 °F 6% 29.87 in 10.0 mi South 11.5 mph 19.6 mph N/A   Clear
7:35 PM 80.8 °F - 10.0 °F 7% 29.88 in 10.0 mi South 11.5 mph - N/A   Clear
7:55 PM 79.9 °F - 10.6 °F 7% 29.88 in 10.0 mi South 11.5 mph - N/A   Clear
8:15 PM 77.9 °F - 14.0 °F 9% 29.88 in 10.0 mi South 8.1 mph - N/A   Clear
8:35 PM 74.3 °F - 19.9 °F 13% 29.89 in 10.0 mi NNW 5.8 mph - N/A   Clear
8:55 PM 72.1 °F - 18.5 °F 13% 29.90 in 10.0 mi North 11.5 mph - N/A   Clear
9:15 PM 70.7 °F - 23.0 °F 17% 29.91 in 10.0 mi NNE 12.7 mph - N/A   Clear
9:35 PM 67.5 °F - 25.5 °F 21% 29.91 in 10.0 mi NE 6.9 mph - N/A   Clear
9:55 PM 65.8 °F - 25.5 °F 22% 29.92 in 10.0 mi NE 9.2 mph - N/A   Clear
10:15 PM 62.1 °F - 27.5 °F 27% 29.93 in 10.0 mi NE 5.8 mph - N/A   Clear
10:35 PM 61.2 °F - 27.5 °F 28% 29.94 in 10.0 mi NNE 3.5 mph - N/A   Clear
10:55 PM 60.6 °F - 27.3 °F 28% 29.96 in 10.0 mi NNE 4.6 mph - N/A   Clear
11:15 PM 59.9 °F - 31.1 °F 34% 29.96 in 10.0 mi NW 4.6 mph - N/A   Clear
11:35 PM 59.2 °F - 31.1 °F 35% 29.97 in 10.0 mi Calm Calm - N/A   Clear
11:55 PM 59.9 °F - 30.0 °F 32% 29.98 in 10.0 mi NNW 4.6 mph - N/A   Clear